Wetterdaten: Montag, 24.11.2014
Datum Zeit Temp. A. Mod.Schuppen Waschkche Feuchte A. Luftdruck Regen Wind Richtung Richtung Sonnenschein Helligkeit Solar
24.11.2014 00:04 10,5 C 9,6 C 11,5 C 77 % 1015,0 hPa 0,0 l/m 10,6 km/h (2 Bft) S22.5 180 0 min 0 lux 0 W/m
24.11.2014 00:09 10,5 C 9,6 C 11,5 C 78 % 1015,0 hPa 0,0 l/m 10,4 km/h (2 Bft) S-SO22.5 160 0 min 0 lux 0 W/m
24.11.2014 00:14 10,5 C 9,8 C 11,5 C 78 % 1015,0 hPa 0,0 l/m 18,0 km/h (3 Bft) S-SO22.5 160 0 min 0 lux 0 W/m
24.11.2014 00:19 10,6 C 9,9 C 11,5 C 78 % 1015,0 hPa 0,0 l/m 16,5 km/h (3 Bft) S22.5 170 0 min 0 lux 0 W/m
24.11.2014 00:24 10,6 C 10,0 C 11,5 C 78 % 1015,0 hPa 0,0 l/m 15,8 km/h (3 Bft) S45 175 0 min 0 lux 0 W/m
24.11.2014 00:29 10,6 C 10,0 C 11,5 C 78 % 1015,0 hPa 0,0 l/m 15,8 km/h (3 Bft) S45 175 0 min 0 lux 0 W/m
24.11.2014 00:34 10,5 C 9,8 C 11,5 C 78 % 1015,0 hPa 0,0 l/m 18,0 km/h (3 Bft) S-SO22.5 160 0 min 0 lux 0 W/m
24.11.2014 00:39 10,6 C 9,9 C 11,5 C 78 % 1015,0 hPa 0,0 l/m 16,5 km/h (3 Bft) S22.5 170 0 min 0 lux 0 W/m
24.11.2014 00:44 10,6 C 10,0 C 11,5 C 78 % 1015,0 hPa 0,0 l/m 15,8 km/h (3 Bft) S45 175 0 min 0 lux 0 W/m
24.11.2014 00:49 10,6 C 10,0 C 11,5 C 78 % 1015,0 hPa 0,0 l/m 15,8 km/h (3 Bft) S45 175 0 min 0 lux 0 W/m
24.11.2014 00:54 10,5 C 10,4 C 11,5 C 79 % 1016,0 hPa 0,0 l/m 15,8 km/h (3 Bft) S67.5 185 0 min 0 lux 0 W/m
24.11.2014 00:59 10,5 C 10,5 C 11,5 C 79 % 1016,0 hPa 0,0 l/m 15,1 km/h (3 Bft) S45 185 0 min 0 lux 0 W/m
24.11.2014 01:04 10,5 C 10,4 C 11,5 C 79 % 1016,0 hPa 0,0 l/m 13,0 km/h (3 Bft) S22.5 180 0 min 0 lux 0 W/m
24.11.2014 01:09 10,6 C 10,5 C 11,5 C 79 % 1016,0 hPa 0,0 l/m 7,9 km/h (2 Bft) S-SW22.5 195 0 min 0 lux 0 W/m
24.11.2014 01:14 10,5 C 10,4 C 11,5 C 79 % 1016,0 hPa 0,0 l/m 15,8 km/h (3 Bft) S67.5 185 0 min 0 lux 0 W/m
24.11.2014 01:19 10,5 C 10,5 C 11,5 C 79 % 1016,0 hPa 0,0 l/m 15,1 km/h (3 Bft) S45 185 0 min 0 lux 0 W/m
24.11.2014 01:24 10,5 C 10,4 C 11,5 C 79 % 1016,0 hPa 0,0 l/m 13,0 km/h (3 Bft) S22.5 180 0 min 0 lux 0 W/m
24.11.2014 01:29 10,6 C 10,5 C 11,5 C 79 % 1016,0 hPa 0,0 l/m 7,9 km/h (2 Bft) S-SW22.5 195 0 min 0 lux 0 W/m
24.11.2014 01:34 10,8 C 10,6 C 11,5 C 78 % 1016,0 hPa 0,0 l/m 8,3 km/h (2 Bft) S-SW45 205 0 min 0 lux 0 W/m
24.11.2014 01:39 10,8 C 10,7 C 11,5 C 78 % 1016,0 hPa 0,0 l/m 13,6 km/h (3 Bft) S-SW22.5 195 0 min 0 lux 0 W/m
24.11.2014 01:44 10,8 C 10,7 C 11,5 C 79 % 1016,0 hPa 0,0 l/m 11,5 km/h (2 Bft) S-SW22.5 205 0 min 0 lux 0 W/m
24.11.2014 01:49 11,0 C 10,9 C 11,5 C 79 % 1016,0 hPa 0,0 l/m 16,8 km/h (3 Bft) SW22.5 215 0 min 0 lux 0 W/m
24.11.2014 01:54 10,8 C 10,6 C 11,5 C 78 % 1016,0 hPa 0,0 l/m 8,3 km/h (2 Bft) S-SW45 205 0 min 0 lux 0 W/m
24.11.2014 01:59 10,8 C 10,7 C 11,5 C 78 % 1016,0 hPa 0,0 l/m 13,6 km/h (3 Bft) S-SW22.5 195 0 min 0 lux 0 W/m
24.11.2014 02:04 10,8 C 10,7 C 11,5 C 79 % 1016,0 hPa 0,0 l/m 11,5 km/h (2 Bft) S-SW22.5 205 0 min 0 lux 0 W/m
24.11.2014 02:09 11,0 C 10,9 C 11,5 C 79 % 1016,0 hPa 0,0 l/m 16,8 km/h (3 Bft) SW22.5 215 0 min 0 lux 0 W/m
24.11.2014 02:14 10,7 C 10,4 C 11,6 C 86 % 1017,0 hPa 0,0 l/m 27,3 km/h (5 Bft) W45 260 0 min 0 lux 0 W/m
24.11.2014 02:19 10,4 C 10,2 C 11,6 C 87 % 1017,0 hPa 0,0 l/m 25,2 km/h (4 Bft) W-NW22.5 300 0 min 0 lux 0 W/m
24.11.2014 02:24 10,4 C 10,1 C 11,6 C 87 % 1017,0 hPa 0,0 l/m 17,5 km/h (3 Bft) NW45 310 0 min 0 lux 0 W/m
24.11.2014 02:29 10,3 C 10,0 C 11,6 C 88 % 1017,0 hPa 0,0 l/m 17,5 km/h (3 Bft) NW45 310 0 min 0 lux 0 W/m
24.11.2014 02:34 10,7 C 10,4 C 11,6 C 86 % 1017,0 hPa 0,0 l/m 27,3 km/h (5 Bft) W45 260 0 min 0 lux 0 W/m
24.11.2014 02:39 10,4 C 10,2 C 11,6 C 87 % 1017,0 hPa 0,0 l/m 25,2 km/h (4 Bft) W-NW22.5 300 0 min 0 lux 0 W/m
24.11.2014 02:44 10,4 C 10,1 C 11,6 C 87 % 1017,0 hPa 0,0 l/m 17,5 km/h (3 Bft) NW45 310 0 min 0 lux 0 W/m
24.11.2014 02:49 10,3 C 10,0 C 11,6 C 88 % 1017,0 hPa 0,0 l/m 17,5 km/h (3 Bft) NW45 310 0 min 0 lux 0 W/m
24.11.2014 02:54 9,8 C 9,6 C 11,6 C 89 % 1018,0 hPa 0,0 l/m 17,6 km/h (3 Bft) N-NW45 335 0 min 0 lux 0 W/m
24.11.2014 02:59 9,8 C 9,5 C 11,6 C 89 % 1018,0 hPa 0,0 l/m 17,6 km/h (3 Bft) N-NW45 335 0 min 0 lux 0 W/m
24.11.2014 03:04 9,7 C 9,3 C 11,6 C 89 % 1018,0 hPa 0,0 l/m 12,1 km/h (2 Bft) N-NW22.5 335 0 min 0 lux 0 W/m
24.11.2014 03:09 9,7 C 9,3 C 11,6 C 89 % 1018,0 hPa 0,0 l/m 6,7 km/h (2 Bft) NW67.5 320 0 min 0 lux 0 W/m
24.11.2014 03:14 9,8 C 9,6 C 11,6 C 89 % 1018,0 hPa 0,0 l/m 17,6 km/h (3 Bft) N-NW45 335 0 min 0 lux 0 W/m
24.11.2014 03:19 9,8 C 9,5 C 11,6 C 89 % 1018,0 hPa 0,0 l/m 17,6 km/h (3 Bft) N-NW45 335 0 min 0 lux 0 W/m
24.11.2014 03:24 9,7 C 9,3 C 11,6 C 89 % 1018,0 hPa 0,0 l/m 12,1 km/h (2 Bft) N-NW22.5 335 0 min 0 lux 0 W/m
24.11.2014 03:29 9,7 C 9,3 C 11,6 C 89 % 1018,0 hPa 0,0 l/m 6,7 km/h (2 Bft) NW67.5 320 0 min 0 lux 0 W/m
24.11.2014 03:34 9,6 C 9,1 C 11,5 C 88 % 1019,0 hPa 0,0 l/m 10,6 km/h (2 Bft) W-NW45 300 0 min 0 lux 0 W/m
24.11.2014 03:39 9,5 C 9,1 C 11,5 C 88 % 1019,0 hPa 0,0 l/m 10,6 km/h (2 Bft) W-NW45 300 0 min 0 lux 0 W/m
24.11.2014 03:44 9,5 C 9,0 C 11,5 C 88 % 1018,0 hPa 0,0 l/m 8,4 km/h (2 Bft) NW22.5 320 0 min 0 lux 0 W/m
24.11.2014 03:49 9,5 C 9,0 C 11,5 C 88 % 1018,0 hPa 0,0 l/m 2,0 km/h (1 Bft) N-NW22.5 335 0 min 0 lux 0 W/m
24.11.2014 03:54 9,6 C 9,1 C 11,5 C 88 % 1019,0 hPa 0,0 l/m 10,6 km/h (2 Bft) W-NW45 300 0 min 0 lux 0 W/m
24.11.2014 03:59 9,5 C 9,1 C 11,5 C 88 % 1019,0 hPa 0,0 l/m 10,6 km/h (2 Bft) W-NW45 300 0 min 0 lux 0 W/m
24.11.2014 04:04 9,5 C 9,0 C 11,5 C 88 % 1018,0 hPa 0,0 l/m 8,4 km/h (2 Bft) NW22.5 320 0 min 0 lux 0 W/m
24.11.2014 04:09 9,5 C 9,0 C 11,5 C 88 % 1018,0 hPa 0,0 l/m 2,0 km/h (1 Bft) N-NW22.5 335 0 min 0 lux 0 W/m
24.11.2014 04:14 9,3 C 8,9 C 11,5 C 89 % 1019,0 hPa 0,0 l/m 0,0 km/h (0 Bft) NW 325 0 min 0 lux 0 W/m
24.11.2014 04:20 9,2 C 8,8 C 11,5 C 89 % 1019,0 hPa 0,0 l/m 14,7 km/h (3 Bft) W-NW22.5 300 0 min 0 lux 0 W/m
24.11.2014 04:25 9,2 C 8,8 C 11,5 C 90 % 1019,0 hPa 0,0 l/m 14,7 km/h (3 Bft) W-NW22.5 300 0 min 0 lux 0 W/m
24.11.2014 04:30 9,2 C 8,8 C 11,5 C 90 % 1019,0 hPa 0,0 l/m 8,1 km/h (2 Bft) W-NW22.5 295 0 min 0 lux 0 W/m
24.11.2014 04:35 9,3 C 8,9 C 11,5 C 89 % 1019,0 hPa 0,0 l/m 0,0 km/h (0 Bft) NW 325 0 min 0 lux 0 W/m
24.11.2014 04:40 9,2 C 8,8 C 11,5 C 89 % 1019,0 hPa 0,0 l/m 14,7 km/h (3 Bft) W-NW22.5 300 0 min 0 lux 0 W/m
24.11.2014 04:45 9,2 C 8,8 C 11,5 C 90 % 1019,0 hPa 0,0 l/m 14,7 km/h (3 Bft) W-NW22.5 300 0 min 0 lux 0 W/m
24.11.2014 04:50 9,2 C 8,8 C 11,5 C 90 % 1019,0 hPa 0,0 l/m 8,1 km/h (2 Bft) W-NW22.5 295 0 min 0 lux 0 W/m
24.11.2014 04:55 9,1 C 8,7 C 11,5 C 90 % 1020,0 hPa 0,0 l/m 12,5 km/h (2 Bft) W-NW22.5 295 0 min 0 lux 0 W/m
24.11.2014 05:00 9,1 C 8,8 C 11,5 C 90 % 1020,0 hPa 0,0 l/m 12,5 km/h (2 Bft) W-NW22.5 295 0 min 0 lux 0 W/m
24.11.2014 05:05 9,1 C 8,8 C 11,5 C 90 % 1020,0 hPa 0,0 l/m 12,5 km/h (2 Bft) W-NW22.5 295 0 min 0 lux 0 W/m
24.11.2014 05:10 9,1 C 8,8 C 11,5 C 90 % 1020,0 hPa 3,2 l/m 12,7 km/h (3 Bft) W-NW22.5 295 0 min 0 lux 0 W/m
24.11.2014 05:15 9,1 C 8,7 C 11,5 C 90 % 1020,0 hPa 0,0 l/m 12,5 km/h (2 Bft) W-NW22.5 295 0 min 0 lux 0 W/m
24.11.2014 05:20 9,1 C 8,8 C 11,5 C 90 % 1020,0 hPa 0,0 l/m 12,5 km/h (2 Bft) W-NW22.5 295 0 min 0 lux 0 W/m
24.11.2014 05:25 9,1 C 8,8 C 11,5 C 90 % 1020,0 hPa 0,0 l/m 12,5 km/h (2 Bft) W-NW22.5 295 0 min 0 lux 0 W/m
24.11.2014 05:30 9,1 C 8,8 C 11,5 C 90 % 1020,0 hPa 0,0 l/m 12,7 km/h (3 Bft) W-NW22.5 295 0 min 0 lux 0 W/m
24.11.2014 05:35 8,9 C 8,7 C 11,5 C 90 % 1020,1 hPa 1,1 l/m 11,5 km/h (2 Bft) N-NW45 345 0 min 0 lux 0 W/m
24.11.2014 05:40 8,9 C 8,7 C 11,5 C 90 % 1021,1 hPa 0,0 l/m 14,5 km/h (3 Bft) NW22.5 305 0 min 0 lux 0 W/m
24.11.2014 05:45 8,9 C 8,7 C 11,5 C 90 % 1021,1 hPa 0,0 l/m 23,2 km/h (4 Bft) NW45 325 0 min 0 lux 0 W/m
24.11.2014 05:50 8,9 C 8,7 C 11,5 C 90 % 1021,1 hPa 0,0 l/m 18,0 km/h (3 Bft) N-NW45 335 0 min 0 lux 0 W/m
24.11.2014 05:55 8,9 C 8,7 C 11,5 C 90 % 1020,1 hPa 0,0 l/m 11,5 km/h (2 Bft) N-NW45 345 0 min 0 lux 0 W/m
24.11.2014 06:00 8,9 C 8,7 C 11,5 C 90 % 1021,1 hPa 0,0 l/m 14,5 km/h (3 Bft) NW22.5 305 0 min 0 lux 0 W/m
24.11.2014 06:05 8,9 C 8,7 C 11,5 C 90 % 1021,1 hPa 0,0 l/m 23,2 km/h (4 Bft) NW45 325 0 min 0 lux 0 W/m
24.11.2014 06:10 8,9 C 8,7 C 11,5 C 90 % 1021,1 hPa 0,0 l/m 18,0 km/h (3 Bft) N-NW45 335 0 min 0 lux 0 W/m
24.11.2014 06:15 8,6 C 8,2 C 11,5 C 88 % 1021,1 hPa 0,0 l/m 27,4 km/h (5 Bft) N-NW22.5 330 0 min 0 lux 0 W/m
24.11.2014 06:19 8,5 C 8,1 C 11,5 C 88 % 1021,1 hPa 0,0 l/m 11,5 km/h (2 Bft) N-NW45 330 0 min 0 lux 0 W/m
24.11.2014 06:24 8,5 C 8,0 C 11,4 C 87 % 1022,1 hPa 0,0 l/m 13,5 km/h (3 Bft) W-NW45 300 0 min 0 lux 0 W/m
24.11.2014 06:29 8,7 C 8,4 C 11,5 C 88 % 1021,1 hPa 0,0 l/m 27,4 km/h (5 Bft) N-NW22.5 330 0 min 0 lux 0 W/m
24.11.2014 06:34 8,6 C 8,2 C 11,5 C 88 % 1021,1 hPa 0,0 l/m 27,4 km/h (5 Bft) N-NW22.5 330 0 min 0 lux 0 W/m
24.11.2014 06:39 8,5 C 8,1 C 11,5 C 88 % 1021,1 hPa 0,0 l/m 11,5 km/h (2 Bft) N-NW45 330 0 min 0 lux 0 W/m
24.11.2014 06:44 8,5 C 8,0 C 11,4 C 87 % 1022,1 hPa 0,0 l/m 13,5 km/h (3 Bft) W-NW45 300 0 min 0 lux 0 W/m
24.11.2014 06:49 8,4 C 7,9 C 11,4 C 87 % 1022,1 hPa 0,0 l/m 13,5 km/h (3 Bft) W-NW45 300 0 min 0 lux 0 W/m
24.11.2014 06:55 8,4 C 7,9 C 11,5 C 86 % 1022,1 hPa 0,0 l/m 13,8 km/h (3 Bft) NW45 320 0 min 0 lux 0 W/m
24.11.2014 07:00 8,4 C 7,8 C 11,4 C 86 % 1022,1 hPa 0,0 l/m 11,6 km/h (2 Bft) NW67.5 325 0 min 0 lux 0 W/m
24.11.2014 07:04 8,4 C 7,8 C 11,4 C 86 % 1022,1 hPa 0,0 l/m 15,1 km/h (3 Bft) NW22.5 325 0 min 0 lux 0 W/m
24.11.2014 07:09 8,4 C 7,7 C 11,4 C 86 % 1022,1 hPa 0,0 l/m 13,4 km/h (3 Bft) NW45 315 0 min 0 lux 0 W/m
24.11.2014 07:14 8,4 C 7,7 C 11,4 C 86 % 1022,1 hPa 0,0 l/m 9,4 km/h (2 Bft) NW22.5 325 0 min 0 lux 0 W/m
24.11.2014 07:19 8,4 C 7,7 C 11,4 C 86 % 1022,1 hPa 0,0 l/m 11,0 km/h (2 Bft) NW22.5 320 0 min 0 lux 0 W/m
24.11.2014 07:25 8,4 C 7,6 C 11,4 C 86 % 1022,1 hPa 0,0 l/m 8,9 km/h (2 Bft) NW22.5 320 0 min 0 lux 0 W/m
24.11.2014 07:30 8,4 C 7,5 C 11,4 C 86 % 1022,1 hPa 0,0 l/m 13,3 km/h (3 Bft) NW45 315 0 min 0 lux 0 W/m
24.11.2014 07:34 8,3 C 7,3 C 11,4 C 86 % 1022,1 hPa 0,0 l/m 13,3 km/h (3 Bft) NW45 315 0 min 0 lux 0 W/m
24.11.2014 07:39 8,3 C 7,0 C 11,4 C 86 % 1022,1 hPa 0,0 l/m 10,2 km/h (2 Bft) NW45 310 0 min 0 lux 0 W/m
24.11.2014 07:44 8,2 C 6,9 C 11,4 C 86 % 1022,1 hPa 0,0 l/m 14,4 km/h (3 Bft) N-NW22.5 330 0 min 0 lux 0 W/m
24.11.2014 07:49 8,2 C 6,8 C 11,4 C 86 % 1022,1 hPa 0,0 l/m 14,1 km/h (3 Bft) N-NW45 335 0 min 0 lux 0 W/m
24.11.2014 07:54 8,1 C 6,5 C 11,4 C 86 % 1022,1 hPa 0,0 l/m 14,1 km/h (3 Bft) N-NW45 335 0 min 0 lux 0 W/m
24.11.2014 08:00 8,1 C 6,0 C 11,4 C 86 % 1023,1 hPa 0,0 l/m 12,7 km/h (3 Bft) N-NW45 330 0 min 220 lux 0 W/m
24.11.2014 08:04 8,0 C 5,7 C 11,4 C 86 % 1023,1 hPa 0,0 l/m 8,1 km/h (2 Bft) N-NW22.5 345 0 min 220 lux 0 W/m
24.11.2014 08:09 7,9 C 5,4 C 11,4 C 86 % 1023,1 hPa 0,0 l/m 8,1 km/h (2 Bft) N-NW22.5 345 0 min 220 lux 0 W/m
24.11.2014 08:14 7,8 C 5,1 C 11,4 C 86 % 1023,1 hPa 0,0 l/m 8,1 km/h (2 Bft) N-NW22.5 345 0 min 651 lux 4 W/m
24.11.2014 08:19 7,8 C 5,1 C 11,3 C 86 % 1023,1 hPa 0,0 l/m 0,0 km/h (0 Bft) N-NW 335 0 min 830 lux 6 W/m
24.11.2014 08:24 7,8 C 4,9 C 11,3 C 86 % 1023,1 hPa 0,0 l/m 0,0 km/h (0 Bft) N-NW 335 0 min 830 lux 6 W/m
24.11.2014 08:30 7,8 C 4,4 C 11,4 C 86 % 1023,1 hPa 0,0 l/m 0,0 km/h (0 Bft) N-NW 335 0 min 830 lux 6 W/m
24.11.2014 08:35 7,8 C 4,6 C 11,3 C 86 % 1023,1 hPa 0,0 l/m 5,3 km/h (1 Bft) NW22.5 310 0 min 830 lux 6 W/m
24.11.2014 08:39 7,3 C 4,6 C 11,3 C 87 % 1023,1 hPa 0,0 l/m 5,3 km/h (1 Bft) NW22.5 310 0 min 1,71 klux 12 W/m
24.11.2014 08:44 7,2 C 4,3 C 11,3 C 87 % 1023,1 hPa 0,0 l/m 0,0 km/h (0 Bft) W 280 0 min 1,71 klux 12 W/m
24.11.2014 08:49 7,0 C 4,1 C 11,3 C 87 % 1023,1 hPa 0,0 l/m 0,0 km/h (0 Bft) W 280 0 min 2,59 klux 18 W/m
24.11.2014 08:54 6,8 C 4,2 C 11,3 C 87 % 1023,1 hPa 0,0 l/m 0,0 km/h (0 Bft) W 280 0 min 2,59 klux 18 W/m
24.11.2014 08:59 6,8 C 4,5 C 11,3 C 87 % 1023,1 hPa 0,0 l/m 0,0 km/h (0 Bft) W 280 0 min 2,59 klux 18 W/m
24.11.2014 09:05 7,0 C 5,5 C 11,3 C 88 % 1023,1 hPa 0,0 l/m 0,0 km/h (0 Bft) W 280 0 min 5,37 klux 37 W/m
24.11.2014 09:09 7,1 C 6,0 C 11,3 C 88 % 1023,1 hPa 0,0 l/m 0,0 km/h (0 Bft) W-NW 285 0 min 5,37 klux 37 W/m
24.11.2014 09:14 7,1 C 7,1 C 11,3 C 88 % 1024,1 hPa 0,0 l/m 0,0 km/h (0 Bft) W-NW 285 0 min 5,37 klux 37 W/m
24.11.2014 09:19 7,1 C 8,1 C 11,3 C 88 % 1024,1 hPa 0,0 l/m 0,0 km/h (0 Bft) W-NW 285 0 min 5,37 klux 37 W/m
24.11.2014 09:24 7,2 C 8,5 C 11,3 C 88 % 1024,1 hPa 0,0 l/m 7,8 km/h (2 Bft) W 270 0 min 5,37 klux 37 W/m
24.11.2014 09:29 7,3 C 9,5 C 11,3 C 89 % 1024,1 hPa 0,0 l/m 7,8 km/h (2 Bft) W 270 5 min 18,9 klux 129 W/m
24.11.2014 09:35 7,5 C 10,0 C 11,3 C 89 % 1024,1 hPa 0,0 l/m 9,1 km/h (2 Bft) W-SW22.5 250 6 min 17,0 klux 116 W/m
24.11.2014 09:40 7,6 C 10,2 C 11,3 C 89 % 1024,1 hPa 0,0 l/m 9,4 km/h (2 Bft) W-SW22.5 245 5 min 19,5 klux 133 W/m
24.11.2014 09:44 7,8 C 10,3 C 11,3 C 89 % 1024,1 hPa 0,0 l/m 9,4 km/h (2 Bft) W-SW22.5 245 4 min 19,5 klux 133 W/m
24.11.2014 09:49 8,0 C 10,7 C 11,2 C 89 % 1024,1 hPa 0,0 l/m 8,4 km/h (2 Bft) W-SW 245 5 min 19,8 klux 135 W/m
24.11.2014 09:54 8,1 C 11,4 C 11,2 C 89 % 1024,1 hPa 0,0 l/m 10,3 km/h (2 Bft) W-SW22.5 250 5 min 19,8 klux 135 W/m
24.11.2014 09:59 8,2 C 12,0 C 11,2 C 89 % 1024,1 hPa 0,0 l/m 10,0 km/h (2 Bft) W22.5 260 5 min 22,0 klux 150 W/m
24.11.2014 10:05 8,3 C 13,1 C 11,2 C 88 % 1024,1 hPa 0,0 l/m 7,6 km/h (2 Bft) W-NW22.5 295 6 min 22,0 klux 150 W/m
24.11.2014 10:10 8,3 C 14,2 C 11,2 C 88 % 1024,1 hPa 0,0 l/m 7,6 km/h (2 Bft) W-NW22.5 295 5 min 23,1 klux 158 W/m
24.11.2014 10:14 8,5 C 14,6 C 11,2 C 87 % 1024,1 hPa 0,0 l/m 6,7 km/h (2 Bft) NW 305 4 min 23,1 klux 158 W/m
24.11.2014 10:19 8,5 C 15,6 C 11,2 C 87 % 1024,1 hPa 0,0 l/m 7,1 km/h (2 Bft) W-NW22.5 295 5 min 25,4 klux 174 W/m
24.11.2014 10:24 8,8 C 16,0 C 11,2 C 87 % 1024,1 hPa 0,0 l/m 8,9 km/h (2 Bft) W-NW 295 5 min 25,4 klux 174 W/m
24.11.2014 10:29 8,8 C 16,5 C 11,2 C 86 % 1024,1 hPa 0,0 l/m 8,1 km/h (2 Bft) W-NW 285 5 min 25,4 klux 174 W/m
24.11.2014 10:34 9,0 C 16,9 C 11,2 C 85 % 1025,1 hPa 0,0 l/m 8,4 km/h (2 Bft) W-NW 285 5 min 26,7 klux 183 W/m
24.11.2014 10:40 9,0 C 17,7 C 11,2 C 85 % 1025,1 hPa 0,0 l/m 8,7 km/h (2 Bft) W-NW 295 6 min 26,7 klux 183 W/m
24.11.2014 10:45 9,2 C 18,5 C 11,2 C 84 % 1025,1 hPa 0,0 l/m 6,8 km/h (2 Bft) W-NW 300 5 min 26,7 klux 183 W/m
24.11.2014 10:49 9,4 C 19,0 C 11,2 C 83 % 1025,1 hPa 0,0 l/m 0,7 km/h (0 Bft) W-NW 295 4 min 28,7 klux 196 W/m
24.11.2014 10:54 9,6 C 20,0 C 11,3 C 82 % 1025,1 hPa 0,0 l/m 3,8 km/h (1 Bft) W-NW 300 5 min 28,7 klux 196 W/m
24.11.2014 10:59 9,5 C 20,0 C 11,2 C 81 % 1025,1 hPa 0,0 l/m 3,0 km/h (1 Bft) NW 310 5 min 28,7 klux 196 W/m
24.11.2014 11:05 9,5 C 20,2 C 11,2 C 79 % 1025,1 hPa 0,0 l/m 3,0 km/h (1 Bft) NW 310 6 min 28,7 klux 196 W/m
24.11.2014 11:10 9,6 C 20,4 C 11,3 C 79 % 1025,1 hPa 0,0 l/m 7,8 km/h (2 Bft) W22.5 260 5 min 28,7 klux 196 W/m
24.11.2014 11:15 9,6 C 21,0 C 11,2 C 79 % 1025,1 hPa 0,0 l/m 7,8 km/h (2 Bft) W22.5 260 5 min 28,7 klux 196 W/m
24.11.2014 11:19 9,7 C 21,6 C 11,2 C 79 % 1025,1 hPa 0,0 l/m 7,8 km/h (2 Bft) W22.5 260 4 min 28,7 klux 196 W/m
24.11.2014 11:24 9,8 C 21,8 C 11,2 C 78 % 1025,1 hPa 0,0 l/m 0,3 km/h (0 Bft) W-SW 255 5 min 28,7 klux 196 W/m
24.11.2014 11:29 9,9 C 22,4 C 11,2 C 77 % 1025,1 hPa 0,0 l/m 0,3 km/h (0 Bft) W-SW 255 5 min 28,7 klux 196 W/m
24.11.2014 11:34 10,1 C 22,2 C 11,2 C 77 % 1025,1 hPa 0,0 l/m 0,3 km/h (0 Bft) W 275 5 min 31,6 klux 216 W/m
24.11.2014 11:39 10,4 C 22,2 C 11,2 C 75 % 1025,1 hPa 0,0 l/m 0,4 km/h (0 Bft) NW45 305 5 min 31,7 klux 217 W/m
24.11.2014 11:45 10,4 C 22,7 C 11,2 C 75 % 1025,1 hPa 0,0 l/m 4,7 km/h (1 Bft) SO 130 6 min 31,7 klux 217 W/m
24.11.2014 11:50 10,4 C 22,2 C 11,2 C 75 % 1025,1 hPa 0,0 l/m 0,0 km/h (0 Bft) N 355 5 min 31,7 klux 217 W/m
24.11.2014 11:54 10,4 C 22,6 C 11,3 C 75 % 1025,1 hPa 0,0 l/m 0,0 km/h (0 Bft) N 355 4 min 31,9 klux 218 W/m
24.11.2014 11:59 10,4 C 23,2 C 11,3 C 75 % 1025,1 hPa 0,0 l/m 0,0 km/h (0 Bft) N 355 5 min 31,9 klux 218 W/m
24.11.2014 12:04 10,4 C 23,5 C 11,3 C 75 % 1025,1 hPa 0,0 l/m 0,0 km/h (0 Bft) N 355 5 min 32,4 klux 222 W/m
24.11.2014 12:10 10,4 C 23,5 C 11,3 C 75 % 1025,1 hPa 0,0 l/m 0,0 km/h (0 Bft) N 355 6 min 33,1 klux 226 W/m
24.11.2014 12:15 10,4 C 23,2 C 11,3 C 75 % 1025,1 hPa 0,0 l/m 0,0 km/h (0 Bft) N 355 5 min 33,1 klux 226 W/m
24.11.2014 12:19 10,4 C 22,9 C 11,3 C 71 % 1025,1 hPa 0,0 l/m 2,4 km/h (1 Bft) N22.5 5 4 min 32,3 klux 221 W/m
24.11.2014 12:24 10,4 C 23,4 C 11,3 C 73 % 1025,1 hPa 0,0 l/m 2,4 km/h (1 Bft) N22.5 5 5 min 33,1 klux 226 W/m
24.11.2014 12:29 10,4 C 23,9 C 11,3 C 73 % 1025,1 hPa 0,0 l/m 4,3 km/h (1 Bft) W22.5 275 5 min 33,3 klux 228 W/m
24.11.2014 12:34 10,4 C 24,2 C 11,3 C 70 % 1025,1 hPa 0,0 l/m 0,2 km/h (0 Bft) NW22.5 315 5 min 32,8 klux 224 W/m
24.11.2014 12:39 10,7 C 23,7 C 11,3 C 67 % 1025,0 hPa 0,0 l/m 7,7 km/h (2 Bft) N-NO22.5 30 5 min 32,8 klux 224 W/m
24.11.2014 12:45 10,8 C 22,5 C 11,3 C 66 % 1025,0 hPa 0,0 l/m 5,0 km/h (1 Bft) N-NO 30 0 min 13,7 klux 94 W/m
24.11.2014 12:50 10,8 C 20,7 C 11,3 C 68 % 1025,0 hPa 0,0 l/m 5,4 km/h (2 Bft) N-NO22.5 25 0 min 13,7 klux 94 W/m
24.11.2014 12:55 10,7 C 21,0 C 11,3 C 66 % 1025,0 hPa 0,0 l/m 0,7 km/h (0 Bft) NW45 325 5 min 33,2 klux 227 W/m
24.11.2014 12:59 10,7 C 21,2 C 11,3 C 69 % 1025,0 hPa 0,0 l/m 5,6 km/h (2 Bft) NW45 325 0 min 9,4 klux 64 W/m
24.11.2014 13:04 10,8 C 20,5 C 11,3 C 71 % 1025,0 hPa 0,0 l/m 0,0 km/h (0 Bft) N 5 5 min 35,2 klux 241 W/m
24.11.2014 13:09 10,7 C 20,4 C 11,3 C 67 % 1025,0 hPa 0,0 l/m 4,3 km/h (1 Bft) W-NW22.5 290 0 min 10,4 klux 71 W/m
24.11.2014 13:15 10,4 C 19,7 C 11,3 C 71 % 1025,1 hPa 0,0 l/m 8,8 km/h (2 Bft) W22.5 270 6 min 34,8 klux 238 W/m
24.11.2014 13:20 10,5 C 20,5 C 11,3 C 70 % 1025,0 hPa 0,0 l/m 7,4 km/h (2 Bft) W 280 5 min 34,9 klux 239 W/m
24.11.2014 13:24 10,7 C 22,3 C 11,3 C 69 % 1025,0 hPa 0,0 l/m 8,1 km/h (2 Bft) W-NW45 285 4 min 32,7 klux 224 W/m
24.11.2014 13:29 10,9 C 22,1 C 11,3 C 68 % 1025,0 hPa 0,0 l/m 10,1 km/h (2 Bft) NW45 305 5 min 33,2 klux 227 W/m
24.11.2014 13:34 11,0 C 22,7 C 11,3 C 68 % 1025,0 hPa 0,0 l/m 8,5 km/h (2 Bft) W-NW22.5 295 5 min 33,2 klux 227 W/m
24.11.2014 13:39 10,9 C 23,0 C 11,3 C 66 % 1025,0 hPa 0,0 l/m 11,3 km/h (2 Bft) W45 270 5 min 34,3 klux 235 W/m
24.11.2014 13:44 10,9 C 22,2 C 11,3 C 66 % 1025,0 hPa 0,4 l/m 11,3 km/h (2 Bft) W45 270 5 min 32,6 klux 223 W/m
24.11.2014 13:50 10,9 C 21,1 C 11,3 C 66 % 1025,0 hPa 0,0 l/m 11,3 km/h (2 Bft) W45 280 6 min 31,1 klux 213 W/m
24.11.2014 13:55 10,8 C 20,7 C 11,4 C 66 % 1025,0 hPa 0,0 l/m 14,0 km/h (3 Bft) W22.5 265 5 min 29,7 klux 203 W/m
24.11.2014 13:59 10,9 C 20,1 C 11,4 C 67 % 1025,0 hPa 0,0 l/m 10,8 km/h (2 Bft) W-NW45 285 4 min 28,4 klux 194 W/m
24.11.2014 14:04 11,0 C 19,6 C 11,4 C 66 % 1025,0 hPa 0,0 l/m 9,2 km/h (2 Bft) NW22.5 325 5 min 29,0 klux 198 W/m
24.11.2014 14:09 11,1 C 19,5 C 11,4 C 64 % 1025,0 hPa 0,0 l/m 11,5 km/h (2 Bft) NW22.5 310 5 min 28,3 klux 194 W/m
24.11.2014 14:14 11,1 C 18,8 C 11,4 C 64 % 1025,0 hPa 0,0 l/m 11,3 km/h (2 Bft) W-NW22.5 295 5 min 27,6 klux 189 W/m
24.11.2014 14:20 10,9 C 18,0 C 11,4 C 65 % 1025,0 hPa 0,0 l/m 9,4 km/h (2 Bft) W22.5 280 6 min 23,6 klux 161 W/m
24.11.2014 14:25 10,8 C 18,1 C 11,4 C 65 % 1025,0 hPa 0,0 l/m 14,3 km/h (3 Bft) W-NW22.5 285 5 min 23,6 klux 161 W/m
24.11.2014 14:29 10,8 C 18,5 C 11,4 C 65 % 1025,0 hPa 0,0 l/m 9,7 km/h (2 Bft) NW22.5 305 4 min 23,6 klux 161 W/m
24.11.2014 14:34 11,0 C 19,7 C 11,4 C 67 % 1025,0 hPa 0,0 l/m 11,1 km/h (2 Bft) W45 270 5 min 27,2 klux 186 W/m
24.11.2014 14:39 10,8 C 19,2 C 11,4 C 69 % 1025,0 hPa 0,0 l/m 7,6 km/h (2 Bft) NW45 305 5 min 27,2 klux 186 W/m
24.11.2014 14:44 10,7 C 18,8 C 11,4 C 67 % 1025,0 hPa 0,0 l/m 11,6 km/h (2 Bft) W-NW22.5 295 0 min 14,3 klux 98 W/m
24.11.2014 14:49 10,7 C 17,6 C 11,4 C 67 % 1025,0 hPa 0,0 l/m 7,5 km/h (2 Bft) N-NO22.5 15 0 min 14,3 klux 98 W/m
24.11.2014 14:55 10,8 C 17,1 C 11,4 C 65 % 1025,0 hPa 0,0 l/m 1,5 km/h (1 Bft) N 360 6 min 14,3 klux 98 W/m
24.11.2014 15:00 10,8 C 17,2 C 11,4 C 65 % 1025,0 hPa 0,0 l/m 0,4 km/h (0 Bft) N-NO22.5 25 5 min 14,3 klux 98 W/m
24.11.2014 15:04 10,7 C 17,5 C 11,4 C 66 % 1025,0 hPa 0,0 l/m 0,4 km/h (0 Bft) N-NO22.5 25 4 min 20,5 klux 140 W/m
24.11.2014 15:09 10,6 C 16,2 C 11,4 C 66 % 1025,0 hPa 0,0 l/m 0,1 km/h (0 Bft) N22.5 5 5 min 20,5 klux 140 W/m
24.11.2014 15:14 10,2 C 16,3 C 11,4 C 68 % 1025,1 hPa 0,0 l/m 5,7 km/h (2 Bft) W 275 5 min 20,5 klux 140 W/m
24.11.2014 15:19 10,2 C 15,6 C 11,5 C 66 % 1025,1 hPa 0,0 l/m 4,9 km/h (1 Bft) W-NW 285 5 min 17,3 klux 118 W/m
24.11.2014 15:25 10,1 C 15,7 C 11,5 C 68 % 1025,1 hPa 0,0 l/m 8,9 km/h (2 Bft) W45 265 6 min 17,3 klux 118 W/m
24.11.2014 15:30 10,0 C 14,5 C 11,5 C 66 % 1025,1 hPa 0,0 l/m 5,7 km/h (2 Bft) N-NW22.5 330 5 min 14,3 klux 98 W/m
24.11.2014 15:34 10,0 C 14,5 C 11,5 C 67 % 1025,1 hPa 0,0 l/m 5,7 km/h (2 Bft) N-NW22.5 330 4 min 12,2 klux 83 W/m
24.11.2014 15:39 9,9 C 13,7 C 11,5 C 69 % 1025,1 hPa 0,0 l/m 0,1 km/h (0 Bft) W 270 5 min 12,2 klux 83 W/m
24.11.2014 15:44 9,7 C 12,5 C 11,5 C 69 % 1025,1 hPa 0,0 l/m 5,6 km/h (2 Bft) N 350 5 min 10,0 klux 68 W/m
24.11.2014 15:49 9,6 C 12,0 C 11,5 C 69 % 1025,1 hPa 0,0 l/m 5,6 km/h (2 Bft) N 350 5 min 9,6 klux 66 W/m
24.11.2014 15:54 9,6 C 11,1 C 11,5 C 68 % 1025,1 hPa 0,0 l/m 7,4 km/h (2 Bft) N45 350 5 min 7,84 klux 54 W/m
24.11.2014 16:00 9,7 C 10,0 C 11,5 C 68 % 1025,1 hPa 0,0 l/m 0,7 km/h (0 Bft) NW 325 6 min 5,06 klux 35 W/m
24.11.2014 16:04 9,7 C 9,5 C 11,5 C 68 % 1025,1 hPa 0,0 l/m 0,0 km/h (0 Bft) NW 325 4 min 4,68 klux 32 W/m
24.11.2014 16:09 9,6 C 8,7 C 11,4 C 68 % 1026,1 hPa 0,0 l/m 0,0 km/h (0 Bft) NW 325 5 min 3,43 klux 23 W/m
24.11.2014 16:14 9,1 C 8,2 C 11,4 C 69 % 1026,1 hPa 0,0 l/m 0,0 km/h (0 Bft) NW 325 5 min 2,61 klux 18 W/m
24.11.2014 16:19 9,1 C 6,8 C 11,4 C 69 % 1026,1 hPa 0,0 l/m 0,0 km/h (0 Bft) NW 325 0 min 1,51 klux 10 W/m
24.11.2014 16:25 8,4 C 6,5 C 11,4 C 70 % 1026,1 hPa 0,0 l/m 0,0 km/h (0 Bft) NW 325 0 min 1,51 klux 10 W/m
24.11.2014 16:30 8,2 C 5,9 C 11,4 C 71 % 1026,1 hPa 0,0 l/m 0,0 km/h (0 Bft) NW 325 0 min 762 lux 0 W/m
24.11.2014 16:34 7,6 C 5,2 C 11,4 C 73 % 1026,1 hPa 0,0 l/m 0,0 km/h (0 Bft) NW 325 0 min 495 lux 0 W/m
24.11.2014 16:39 7,5 C 5,0 C 11,4 C 73 % 1026,1 hPa 0,0 l/m 0,0 km/h (0 Bft) NW 325 0 min 367 lux 0 W/m
24.11.2014 16:44 7,3 C 4,6 C 11,4 C 73 % 1026,1 hPa 0,0 l/m 3,4 km/h (1 Bft) NW 325 0 min 367 lux 0 W/m
24.11.2014 16:49 7,2 C 4,6 C 11,4 C 74 % 1026,1 hPa 0,0 l/m 0,0 km/h (0 Bft) NW 325 0 min 282 lux 0 W/m
24.11.2014 16:54 6,9 C 4,5 C 11,3 C 74 % 1026,1 hPa 0,0 l/m 0,0 km/h (0 Bft) NW 325 0 min 107 lux 0 W/m
24.11.2014 17:00 6,8 C 4,0 C 11,3 C 74 % 1026,1 hPa 0,0 l/m 0,0 km/h (0 Bft) NW 325 0 min 41 lux 0 W/m
24.11.2014 17:04 6,8 C 3,6 C 11,3 C 74 % 1026,1 hPa 0,0 l/m 0,0 km/h (0 Bft) NW 325 0 min 16 lux 0 W/m
24.11.2014 17:09 6,8 C 3,6 C 11,3 C 76 % 1026,1 hPa 0,0 l/m 0,0 km/h (0 Bft) NW 325 0 min 5 lux 0 W/m
24.11.2014 17:14 6,8 C 3,5 C 11,3 C 76 % 1026,1 hPa 0,0 l/m 0,0 km/h (0 Bft) NW 325 0 min 1 lux 0 W/m
24.11.2014 17:19 6,4 C 3,2 C 11,3 C 75 % 1026,1 hPa 0,0 l/m 0,0 km/h (0 Bft) NW 325 0 min 0 lux 0 W/m
24.11.2014 17:25 6,5 C 3,2 C 11,3 C 77 % 1026,1 hPa 0,0 l/m 0,0 km/h (0 Bft) NW 325 0 min 0 lux 0 W/m
24.11.2014 17:30 6,6 C 3,2 C 11,2 C 77 % 1026,1 hPa 0,0 l/m 0,0 km/h (0 Bft) NW 325 0 min 0 lux 0 W/m
24.11.2014 17:34 6,4 C 2,9 C 11,2 C 77 % 1026,1 hPa 0,0 l/m 0,0 km/h (0 Bft) NW 325 0 min 0 lux 0 W/m
24.11.2014 17:39 6,2 C 2,6 C 11,2 C 77 % 1026,1 hPa 0,0 l/m 0,0 km/h (0 Bft) NW 325 0 min 0 lux 0 W/m
24.11.2014 17:44 6,0 C 2,6 C 11,1 C 77 % 1026,1 hPa 0,0 l/m 0,0 km/h (0 Bft) NW 325 0 min 0 lux 0 W/m
24.11.2014 17:49 6,1 C 2,8 C 11,1 C 78 % 1026,1 hPa 0,0 l/m 0,0 km/h (0 Bft) NW 325 0 min 0 lux 0 W/m
24.11.2014 17:54 6,0 C 2,7 C 11,1 C 77 % 1026,1 hPa 0,0 l/m 0,0 km/h (0 Bft) NW 325 0 min 0 lux 0 W/m
24.11.2014 18:00 5,9 C 2,5 C 11,1 C 78 % 1026,1 hPa 0,0 l/m 0,0 km/h (0 Bft) NW 325 0 min 0 lux 0 W/m
24.11.2014 18:04 5,9 C 2,5 C 11,1 C 78 % 1026,1 hPa 0,0 l/m 0,0 km/h (0 Bft) NW 325 0 min 0 lux 0 W/m
24.11.2014 18:09 5,8 C 2,3 C 11,0 C 78 % 1026,1 hPa 0,0 l/m 0,0 km/h (0 Bft) NW 325 0 min 0 lux 0 W/m
24.11.2014 18:14 5,7 C 2,2 C 11,0 C 79 % 1026,1 hPa 0,0 l/m 0,0 km/h (0 Bft) NW 325 0 min 0 lux 0 W/m
24.11.2014 18:19 5,7 C 2,3 C 11,0 C 79 % 1026,1 hPa 0,0 l/m 0,0 km/h (0 Bft) NW 325 0 min 0 lux 0 W/m
24.11.2014 18:25 5,4 C 2,1 C 11,0 C 79 % 1026,1 hPa 0,0 l/m 0,0 km/h (0 Bft) NW 325 0 min 0 lux 0 W/m
24.11.2014 18:30 5,4 C 2,2 C 11,0 C 80 % 1026,1 hPa 0,0 l/m 0,0 km/h (0 Bft) NW 325 0 min 0 lux 0 W/m
24.11.2014 18:34 5,3 C 2,1 C 11,0 C 80 % 1026,1 hPa 0,0 l/m 0,0 km/h (0 Bft) NW 325 0 min 0 lux 0 W/m
24.11.2014 18:39 5,3 C 2,2 C 10,9 C 80 % 1026,1 hPa 0,0 l/m 0,0 km/h (0 Bft) NW 325 0 min 0 lux 0 W/m
24.11.2014 18:44 5,3 C 2,3 C 10,9 C 80 % 1027,2 hPa 0,0 l/m 0,0 km/h (0 Bft) NW 325 0 min 0 lux 0 W/m
24.11.2014 18:49 5,3 C 2,1 C 10,9 C 80 % 1026,1 hPa 0,0 l/m 0,0 km/h (0 Bft) NW 325 0 min 0 lux 0 W/m
24.11.2014 18:55 5,2 C 2,0 C 10,9 C 80 % 1026,2 hPa 0,0 l/m 0,0 km/h (0 Bft) NW 325 0 min 0 lux 0 W/m
24.11.2014 19:00 5,1 C 1,8 C 10,9 C 80 % 1026,2 hPa 0,0 l/m 0,0 km/h (0 Bft) NW 325 0 min 0 lux 0 W/m
24.11.2014 19:04 5,1 C 1,6 C 10,9 C 81 % 1027,2 hPa 0,0 l/m 0,0 km/h (0 Bft) NW 325 0 min 0 lux 0 W/m
24.11.2014 19:09 4,9 C 1,6 C 10,9 C 81 % 1027,2 hPa 0,0 l/m 0,0 km/h (0 Bft) NW 325 0 min 0 lux 0 W/m
24.11.2014 19:14 4,9 C 1,5 C 10,8 C 81 % 1027,2 hPa 0,0 l/m 0,0 km/h (0 Bft) NW 325 0 min 0 lux 0 W/m
24.11.2014 19:20 5,2 C 1,6 C 10,8 C 83 % 1027,2 hPa 0,0 l/m 0,0 km/h (0 Bft) NW 325 0 min 0 lux 0 W/m
24.11.2014 19:25 5,3 C 1,6 C 10,8 C 82 % 1027,2 hPa 0,0 l/m 0,0 km/h (0 Bft) NW 325 0 min 0 lux 0 W/m
24.11.2014 19:29 5,2 C 1,5 C 10,8 C 82 % 1027,2 hPa 0,0 l/m 0,0 km/h (0 Bft) NW 325 0 min 0 lux 0 W/m
24.11.2014 19:34 4,9 C 1,4 C 10,8 C 81 % 1027,2 hPa 0,0 l/m 0,0 km/h (0 Bft) NW 325 0 min 0 lux 0 W/m
24.11.2014 19:39 4,9 C 1,3 C 10,8 C 81 % 1027,2 hPa 0,0 l/m 0,0 km/h (0 Bft) NW 325 0 min 0 lux 0 W/m
24.11.2014 19:44 4,6 C 1,2 C 10,8 C 82 % 1027,2 hPa 0,0 l/m 0,0 km/h (0 Bft) NW 325 0 min 0 lux 0 W/m
24.11.2014 19:49 4,5 C 0,8 C 10,8 C 82 % 1027,2 hPa 0,0 l/m 0,0 km/h (0 Bft) NW 325 0 min 0 lux 0 W/m
24.11.2014 19:55 4,4 C 0,9 C 10,8 C 82 % 1027,2 hPa 0,0 l/m 0,0 km/h (0 Bft) NW 325 0 min 0 lux 0 W/m
24.11.2014 20:00 4,4 C 1,0 C 10,7 C 82 % 1027,2 hPa 0,0 l/m 4,1 km/h (1 Bft) NW 325 0 min 0 lux 0 W/m
24.11.2014 20:04 4,5 C 0,9 C 10,7 C 83 % 1027,2 hPa 0,0 l/m 3,9 km/h (1 Bft) NW 325 0 min 0 lux 0 W/m
24.11.2014 20:09 4,3 C 0,7 C 10,7 C 83 % 1027,2 hPa 0,0 l/m 0,0 km/h (0 Bft) NW 325 0 min 0 lux 0 W/m
24.11.2014 20:14 4,3 C 0,8 C 10,7 C 83 % 1027,2 hPa 0,0 l/m 0,0 km/h (0 Bft) NW 325 0 min 0 lux 0 W/m
24.11.2014 20:20 4,4 C 0,8 C 10,7 C 83 % 1027,2 hPa 0,0 l/m 0,0 km/h (0 Bft) NW 325 0 min 0 lux 0 W/m
24.11.2014 20:25 4,2 C 0,6 C 10,7 C 83 % 1027,2 hPa 0,0 l/m 0,0 km/h (0 Bft) NW 325 0 min 0 lux 0 W/m
24.11.2014 20:29 4,2 C 0,8 C 10,7 C 84 % 1027,2 hPa 0,0 l/m 0,3 km/h (0 Bft) NW 325 0 min 0 lux 0 W/m
24.11.2014 20:34 4,5 C 0,9 C 10,7 C 84 % 1027,2 hPa 0,0 l/m 0,0 km/h (0 Bft) NW 325 0 min 0 lux 0 W/m
24.11.2014 20:39 4,4 C 0,7 C 10,7 C 84 % 1027,2 hPa 0,0 l/m 0,0 km/h (0 Bft) NW 325 0 min 0 lux 0 W/m
24.11.2014 20:44 4,3 C 0,5 C 10,7 C 84 % 1027,2 hPa 0,0 l/m 0,0 km/h (0 Bft) NW 325 0 min 0 lux 0 W/m
24.11.2014 20:50 4,1 C 0,5 C 10,6 C 84 % 1027,2 hPa 0,0 l/m 0,0 km/h (0 Bft) NW 325 0 min 0 lux 0 W/m
24.11.2014 20:55 4,1 C 0,4 C 10,6 C 84 % 1027,2 hPa 0,0 l/m 0,0 km/h (0 Bft) NW 325 0 min 0 lux 0 W/m
24.11.2014 20:59 4,2 C 0,5 C 10,6 C 84 % 1027,2 hPa 0,0 l/m 0,6 km/h (0 Bft) NW 325 0 min 0 lux 0 W/m
24.11.2014 21:04 4,2 C 0,6 C 10,6 C 84 % 1027,2 hPa 0,0 l/m 0,0 km/h (0 Bft) NW 325 0 min 0 lux 0 W/m
24.11.2014 21:09 4,2 C 0,6 C 10,6 C 84 % 1027,2 hPa 0,0 l/m 0,0 km/h (0 Bft) NW 325 0 min 0 lux 0 W/m
24.11.2014 21:15 4,1 C 0,5 C 10,6 C 84 % 1027,2 hPa 0,0 l/m 0,0 km/h (0 Bft) NW 325 0 min 0 lux 0 W/m
24.11.2014 21:20 4,2 C 0,8 C 10,6 C 85 % 1027,2 hPa 0,0 l/m 5,9 km/h (2 Bft) O-NO 70 0 min 0 lux 0 W/m
24.11.2014 21:24 4,1 C 0,7 C 10,6 C 85 % 1027,2 hPa 0,0 l/m 4,4 km/h (1 Bft) O-NO 70 0 min 0 lux 0 W/m
24.11.2014 21:29 3,7 C 0,3 C 10,6 C 84 % 1027,2 hPa 0,0 l/m 4,4 km/h (1 Bft) O-NO 70 0 min 0 lux 0 W/m
24.11.2014 21:34 3,6 C 0,3 C 10,6 C 85 % 1027,2 hPa 0,0 l/m 0,9 km/h (0 Bft) O-NO 70 0 min 0 lux 0 W/m
24.11.2014 21:39 3,7 C 0,4 C 10,5 C 85 % 1027,2 hPa 0,0 l/m 0,2 km/h (0 Bft) O-SO 105 0 min 0 lux 0 W/m
24.11.2014 21:45 3,9 C 0,4 C 10,5 C 85 % 1027,2 hPa 0,0 l/m 0,0 km/h (0 Bft) O-SO 105 0 min 0 lux 0 W/m
24.11.2014 21:50 3,6 C 0,2 C 10,5 C 85 % 1027,2 hPa 0,0 l/m 0,0 km/h (0 Bft) O-SO 105 0 min 0 lux 0 W/m
24.11.2014 21:54 3,7 C 0,2 C 10,5 C 86 % 1027,2 hPa 0,0 l/m 3,3 km/h (1 Bft) O-SO 105 0 min 0 lux 0 W/m
24.11.2014 21:59 3,8 C 0,2 C 10,5 C 86 % 1027,2 hPa 0,0 l/m 0,4 km/h (0 Bft) O-SO 105 0 min 0 lux 0 W/m
24.11.2014 22:04 3,9 C 0,3 C 10,5 C 86 % 1027,2 hPa 0,0 l/m 0,1 km/h (0 Bft) O-SO 105 0 min 0 lux 0 W/m
24.11.2014 22:10 3,9 C 0,3 C 10,5 C 86 % 1027,2 hPa 0,0 l/m 0,0 km/h (0 Bft) O-SO 105 0 min 0 lux 0 W/m
24.11.2014 22:15 3,8 C 0,3 C 10,4 C 86 % 1027,2 hPa 0,0 l/m 0,0 km/h (0 Bft) O-SO 105 0 min 0 lux 0 W/m
24.11.2014 22:19 3,6 C -0,1 C 10,5 C 86 % 1027,2 hPa 0,0 l/m 0,0 km/h (0 Bft) O-SO 105 0 min 0 lux 0 W/m
24.11.2014 22:24 3,5 C 0,0 C 10,4 C 86 % 1027,2 hPa 0,0 l/m 0,0 km/h (0 Bft) O-SO 110 0 min 0 lux 0 W/m
24.11.2014 22:29 3,6 C 0,0 C 10,5 C 86 % 1027,2 hPa 0,0 l/m 0,0 km/h (0 Bft) O-SO 110 0 min 0 lux 0 W/m
24.11.2014 22:34 3,5 C -0,2 C 10,4 C 86 % 1027,2 hPa 0,0 l/m 0,0 km/h (0 Bft) O-SO 110 0 min 0 lux 0 W/m
24.11.2014 22:39 3,2 C -0,3 C 10,4 C 86 % 1027,2 hPa 0,0 l/m 0,0 km/h (0 Bft) O-SO 110 0 min 0 lux 0 W/m
24.11.2014 22:45 3,3 C -0,3 C 10,4 C 86 % 1027,2 hPa 0,0 l/m 3,0 km/h (1 Bft) O-SO 110 0 min 0 lux 0 W/m
24.11.2014 22:49 3,4 C -0,3 C 10,4 C 87 % 1027,2 hPa 0,0 l/m 0,0 km/h (0 Bft) O-SO 110 0 min 0 lux 0 W/m
24.11.2014 22:54 3,5 C -0,1 C 10,4 C 87 % 1027,2 hPa 0,0 l/m 0,0 km/h (0 Bft) O-SO 110 0 min 0 lux 0 W/m
24.11.2014 22:59 3,5 C 0,0 C 10,4 C 87 % 1027,2 hPa 0,0 l/m 0,0 km/h (0 Bft) O-SO 110 0 min 0 lux 0 W/m
24.11.2014 23:04 3,3 C 0,2 C 10,4 C 86 % 1027,2 hPa 0,0 l/m 0,0 km/h (0 Bft) O-SO 110 0 min 0 lux 0 W/m
24.11.2014 23:10 3,2 C 0,3 C 10,3 C 86 % 1027,2 hPa 0,0 l/m 0,4 km/h (0 Bft) O-SO 110 0 min 0 lux 0 W/m
24.11.2014 23:14 3,4 C 0,4 C 10,3 C 87 % 1027,2 hPa 0,0 l/m 0,8 km/h (0 Bft) O-SO 115 0 min 0 lux 0 W/m
24.11.2014 23:19 3,3 C 0,1 C 10,3 C 87 % 1027,2 hPa 0,0 l/m 0,8 km/h (0 Bft) O-SO 115 0 min 0 lux 0 W/m
24.11.2014 23:24 3,3 C -0,1 C 10,3 C 87 % 1027,2 hPa 0,0 l/m 0,8 km/h (0 Bft) O-SO 115 0 min 0 lux 0 W/m
24.11.2014 23:29 3,2 C -0,2 C 10,3 C 87 % 1027,2 hPa 0,0 l/m 0,8 km/h (0 Bft) O-SO 115 0 min 0 lux 0 W/m
24.11.2014 23:34 3,0 C -0,2 C 10,3 C 87 % 1027,2 hPa 0,0 l/m 0,8 km/h (0 Bft) O-SO 115 0 min 0 lux 0 W/m
24.11.2014 23:40 2,9 C -0,5 C 10,2 C 87 % 1027,2 hPa 0,0 l/m 0,8 km/h (0 Bft) O-SO 115 0 min 0 lux 0 W/m
24.11.2014 23:45 2,8 C -0,5 C 10,2 C 87 % 1027,2 hPa 0,0 l/m 0,8 km/h (0 Bft) O-SO 115 0 min 0 lux 0 W/m
24.11.2014 23:49 2,8 C -0,7 C 10,2 C 87 % 1027,2 hPa 0,0 l/m 0,8 km/h (0 Bft) O-SO 115 0 min 0 lux 0 W/m
24.11.2014 23:54 2,8 C -0,7 C 10,2 C 87 % 1027,2 hPa 0,0 l/m 0,8 km/h (0 Bft) O-SO 115 0 min 0 lux 0 W/m
24.11.2014 23:59 2,7 C -0,7 C 10,2 C 87 % 1027,2 hPa 0,0 l/m 0,8 km/h (0 Bft) O-SO 115 0 min 0 lux 0 W/m
_ Min-Zeit 23:59 23:49 23:40 14:09 00:19 - 04:14 - - - - -
Minimum _ 2,7 C -0,7 C 10,2 C 64 % 1015,0 hPa - 0,0 km/h (0 Bft) - - - - -
_ Max-Zeit 14:09 12:34 02:14 04:25 23:59 05:10 06:15 - - 09:35 13:04 13:04
Maximum _ 11,1 C 24,2 C 11,6 C 90 % 1027,2 hPa 3,2 l/m 27,4 km/h
N-NW (5 Bft)
- - 6 min 35,2 klux 241 W/m
Durchschnitt _ 8,0 C 9,0 C 11,2 C 81 % 1023,4 hPa #4,7 l/m 6,6 km/h (2 Bft) W-NW - #6:20 h 6,97 klux 138 W/m